STARLINK-36938, 68124

Orbit data source: Space-Track

STARLINK-36938, 68124 is a payload satellite owned by SpaceX/Seattle (US) in SSO that was launched on Sun, 08 Mar 2026 UTC via an FALCON 9 launch vehicle from the Air Force Western Test Range (AFWTR). Payload-class satellites include a variety of spacecraft equipped with specific instruments for various scientific and technological missions. These include communications satellites like Starlink; space stations such as the ISS; scientific satellites like the Hubble; Earth observation satellites from companies like Planet Labs, Umbra, and HawkEye 360; GPS; miniature CubeSats for education and research; and military/defense satellites.

Loading next visibility...
Identifier
68124, 2026-044Z
Orbit
SSO
Country
Flag of USUS
Related business
Manufacturer
SpaceX/Seattle
Mission
Operational Commercial Communications
Bus & Motor
STARLINK V2MO, Unknown motor
Mass
575 kg wet, ~530 kg dry
Launch date (UTC)
2026-03-08 (6 months ago)
Launch vehicle
FALCON 9
Launch site
Air Force Western Test Range (AFWTR)
Object type
Payload
Rocket body
Debris
Shape & HBR
Box + 1 Pan, 17.7 m
Radar Cross Section
41.120 m², Large (>1 m²)

Expand to show TLE details & history
Last TLE update: 16 hours ago

TLE from 16 hours ago
0 STARLINK-36938
1 68124U 26044Z   26246.73617467  .00021611  00000-0  66978-3 0  9998
2 68124  97.2856 208.8966 0002084  97.6806 262.4673 15.33444903 29062
Epoch: 2026-09-03T17:40Z
TLE epoch observation values (Epoch: 2026-09-03T17:40:05.491Z)
Latitude
-0.00007°
Longitude
-38.99634°
Altitude
468.843 km
Speed
7.632 km/s
True Right ascension
13h 55m 35s
True Declination
0° 00' 00"
Sunlit
Object was in daylight at epoch
Visualization orbit readout
Latitude
Unknown
Longitude
Unknown
Altitude
Unknown
Speed
Unknown
Apparent Right ascension
Unknown
Apparent Declination
Unknown
Sunlit
N/A
Visualization observer readout
Local Sidereal Time
01:42:43
Azimuth
Unknown
Elevation
Unknown
Doppler factor
Unknown
Orbital elements
Apogee altitude
463.912 km
Perigee altitude
461.061 km
Semi-major axis
6,840.623 km
Eccentricity
0.00021
Inclination
97.2856°
RAAN
208.8966°
Arg. of periapsis
97.6806°
True anomaly
262.44363°
Mean anomaly
262.4673°
Eccentric anomaly
262.45546°
Mean motion
3.83619 °/min
Orbital period
93.84 mins
BSTAR
0.00066978
Loading maneuver chart data...
Computing Atmospheric mass density...
Loading historical data...
Loading historical data...
Loading historical data...
Loading historical data...
Loading historical data...
Loading historical data...
Loading historical data...

Documentation

Showing up to 5 results
|